This demonstration page uses our WeatherBlox Daily Observations layout. Learn more.

Left ArrowRight Arrow

Hourly Observations for March 13, 2022

Temp ( °F °C ) Dew Point ( °F °C ) Humidity (%) Winds ( mph kmh ) Pressure ( in mb ) Visibility ( mi km ) Precip ( " mm )
12:53 am 00:53 Clear 27 -2.8 24 -4.4 89 89 E 3 6 29.75 1008 10 16 0.00 0.00
1:53 am 01:53 Clear 27 -2.8 25 -3.9 92 92 E 7 11 29.73 1007 10 16 0.00 0.00
3:53 am 03:53 Mostly Cloudy 29 -1.7 26 -3.3 89 89 NE 6 9 29.72 1007 10 16 0.00 0.00
4:53 am 04:53 Partly Cloudy 29 -1.7 26 -3.3 89 89 E 6 9 29.70 1006 10 16 0.00 0.00
5:53 am 05:53 Cloudy 29 -1.7 26 -3.3 89 89 SW 3 6 29.71 1006 10 16 0.00 0.00
6:53 am 06:53 Cloudy 29 -1.7 26 -3.3 89 89 SSE 3 6 29.71 1006 10 16 0.00 0.00
7:53 am 07:53 Mostly Cloudy 28 -2.2 26 -3.3 92 92 Calm 29.71 1006 10 16 0.00 0.00
8:53 am 08:53 Cloudy 30 -1.1 27 -2.8 88 88 Calm 29.73 1007 10 16 0.00 0.00
9:53 am 09:53 Cloudy 32 0 29 -1.7 88 88 Calm 29.72 1007 10 16 0.00 0.00
10:53 am 10:53 Mostly Cloudy 34 1.1 29 -1.7 82 82 E 3 6 29.75 1007 10 16 0.00 0.00
11:53 am 11:53 Sunny 40 4.4 30 -1.1 68 68 Calm 29.74 1007 10 16 0.00 0.00
12:20 pm 12:20 Mostly Cloudy 41 5 30 -1.1 65 65 Calm 29.75 1007 10 16 0.00 0.00
12:53 pm 12:53 Cloudy 42 5.6 32 0 68 68 WSW 9 15 29.76 1008 10 16 0.00 0.00
1:35 pm 13:35 Partly Cloudy 46 7.8 34 1.1 63 63 WSW 12 19 29.73 1007 10 16 0.00 0.00
1:53 pm 13:53 Mostly Cloudy 46 7.8 34 1.1 63 63 W 12 19 29.76 1008 10 16 0.00 0.00
2:53 pm 14:53 Mostly Cloudy 45 7.2 36 2.2 71 71 SW 16 26 29.77 1008 10 16 0.00 0.00
3:01 pm 15:01 Partly Cloudy 45 7.2 36 2.2 71 71 SW 16 26 29.75 1007 10 16 0.00 0.00
3:53 pm 15:53 Mostly Sunny 45 7.2 36 2.2 71 71 SW 21 33 29.78 1009 10 16 0.00 0.00
4:53 pm 16:53 Sunny 45 7.2 36 2.2 71 71 SW 18 30 29.80 1009 10 16 0.00 0.00
5:53 pm 17:53 Mostly Sunny 43 6.1 35 1.7 74 74 SW 16 26 29.82 1010 10 16 0.00 0.00
6:53 pm 18:53 Cloudy 42 5.6 35 1.7 76 76 SSW 13 20 29.85 1011 10 16 0.00 0.00
7:53 pm 19:53 Cloudy 40 4.4 34 1.1 79 79 SW 13 20 29.88 1012 10 16 0.00 0.00
8:53 pm 20:53 Partly Cloudy 37 2.8 33 0.6 86 86 SW 12 19 29.90 1013 10 16 0.00 0.00
9:53 pm 21:53 Partly Cloudy 34 1.1 32 0 92 92 SW 12 19 29.92 1013 10 16 0.00 0.00
10:53 pm 22:53 Clear 37 2.8 32 0 82 82 WSW 16 26 29.94 1014 10 16 0.00 0.00
11:53 pm 23:53 Mostly Cloudy 36 2.2 30 -1.1 79 79 WSW 9 15 29.96 1015 10 16 0.00 0.00

Powered by AerisWeather